Location: Poughquag
(41.6090°N, 73.6820°W)
Time: 09:31:39
(UTC-05:00)

Vanguard 1 - Pass Details

Date: 30 November 2023
Orbit: 653 x 3826 km, 34.3° (Epoch: 25 February)

Event Time Altitude Azimuth Distance (km) Brightness Sun altitude
Rises 23:34:53 0° 278° (W) 7,718 14.7 -69.9°
Reaches altitude 10° 23:40:03 10° 275° (W) 6,848 14.3 -70.0°
Enters shadow 23:44:48 20° 271° (W) 6,061 13.9 -70.0°
Maximum altitude 00:02:38 58° 205° (SSW) 3,924 - -69.6°
Drops below altitude 10° 00:19:32 10° 132° (SE) 5,298 - -68.6°
Sets 00:22:56 0° 128° (SE) 5,958 - -68.3°
